Year,Month,Day,Hour,Minute,Value (Times are PST for temperature in C)
2009,06,02,00,00,19.30
2009,06,02,00,01,19.30
2009,06,02,00,02,19.20
2009,06,02,00,03,19.20
2009,06,02,00,04,19.20
2009,06,02,00,05,19.20
2009,06,02,00,06,19.10
2009,06,02,00,07,19.10
2009,06,02,00,08,19.10
2009,06,02,00,09,19.10
2009,06,02,00,10,19.10
2009,06,02,00,11,19.10
2009,06,02,00,12,19.10
2009,06,02,00,13,19.00
2009,06,02,00,14,19.00
2009,06,02,00,15,19.00
2009,06,02,00,16,19.00
2009,06,02,00,17,18.90
2009,06,02,00,18,18.90
2009,06,02,00,19,18.90
2009,06,02,00,20,18.90
2009,06,02,00,21,18.80
2009,06,02,00,22,18.80
2009,06,02,00,23,18.70
2009,06,02,00,24,18.70
2009,06,02,00,25,18.70
2009,06,02,00,26,18.70
2009,06,02,00,27,18.60
2009,06,02,00,28,18.60
2009,06,02,00,29,18.60
2009,06,02,00,30,18.60
2009,06,02,00,31,18.60
2009,06,02,00,32,18.50
2009,06,02,00,33,18.50
2009,06,02,00,34,18.50
2009,06,02,00,35,18.50
2009,06,02,00,36,18.50
2009,06,02,00,37,18.50
2009,06,02,00,38,18.50
2009,06,02,00,39,18.40
2009,06,02,00,40,18.40
2009,06,02,00,41,18.40
2009,06,02,00,42,18.40
2009,06,02,00,43,18.40
2009,06,02,00,44,18.40
2009,06,02,00,45,18.40
2009,06,02,00,46,18.40
2009,06,02,00,47,18.30
2009,06,02,00,48,18.30
2009,06,02,00,49,18.30
2009,06,02,00,50,18.30
2009,06,02,00,51,18.30
2009,06,02,00,52,18.20
2009,06,02,00,53,18.20
2009,06,02,00,54,18.10
2009,06,02,00,55,18.10
2009,06,02,00,56,18.10
2009,06,02,00,57,18.00
2009,06,02,00,58,17.90
2009,06,02,00,59,17.90
2009,06,02,01,00,17.60
2009,06,02,01,01,17.40
2009,06,02,01,02,17.20
2009,06,02,01,03,17.00
2009,06,02,01,04,16.90
2009,06,02,01,05,16.70
2009,06,02,01,06,16.60
2009,06,02,01,07,16.50
2009,06,02,01,08,16.40
2009,06,02,01,09,16.30
2009,06,02,01,10,16.20
2009,06,02,01,11,16.10
2009,06,02,01,12,16.10
2009,06,02,01,13,16.00
2009,06,02,01,14,15.90
2009,06,02,01,15,15.90
2009,06,02,01,16,15.80
2009,06,02,01,17,15.80
2009,06,02,01,18,15.80
2009,06,02,01,19,15.70
2009,06,02,01,20,15.70
2009,06,02,01,21,15.70
2009,06,02,01,22,15.70
2009,06,02,01,23,15.70
2009,06,02,01,24,15.70
2009,06,02,01,25,15.70
2009,06,02,01,26,15.70
2009,06,02,01,27,15.70
2009,06,02,01,28,15.70
2009,06,02,01,29,15.70
2009,06,02,01,30,15.70
2009,06,02,01,31,15.70
2009,06,02,01,32,15.70
2009,06,02,01,33,15.80
2009,06,02,01,34,15.80
2009,06,02,01,35,15.80
2009,06,02,01,36,15.80
2009,06,02,01,37,15.90
2009,06,02,01,38,15.90
2009,06,02,01,39,15.90
2009,06,02,01,40,15.90
2009,06,02,01,41,16.00
2009,06,02,01,42,16.00
2009,06,02,01,43,16.10
2009,06,02,01,44,16.10
2009,06,02,01,45,16.10
2009,06,02,01,46,16.20
2009,06,02,01,47,16.20
2009,06,02,01,48,16.20
2009,06,02,01,49,16.20
2009,06,02,01,50,16.20
2009,06,02,01,51,16.20
2009,06,02,01,52,16.20
2009,06,02,01,53,16.20
2009,06,02,01,54,16.20
2009,06,02,01,55,16.20
2009,06,02,01,56,16.20
2009,06,02,01,57,16.20
2009,06,02,01,58,16.20
2009,06,02,01,59,16.20
2009,06,02,02,00,16.10
2009,06,02,02,01,16.10
2009,06,02,02,02,16.10
2009,06,02,02,03,16.10
2009,06,02,02,04,16.00
2009,06,02,02,05,16.00
2009,06,02,02,06,15.90
2009,06,02,02,07,15.90
2009,06,02,02,08,15.80
2009,06,02,02,09,15.80
2009,06,02,02,10,15.80
2009,06,02,02,11,15.80
2009,06,02,02,12,15.90
2009,06,02,02,13,16.00
2009,06,02,02,14,16.10
2009,06,02,02,15,16.10
2009,06,02,02,16,16.20
2009,06,02,02,17,16.20
2009,06,02,02,18,16.30
2009,06,02,02,19,16.30
2009,06,02,02,20,16.40
2009,06,02,02,21,16.40
2009,06,02,02,22,16.40
2009,06,02,02,23,16.40
2009,06,02,02,24,16.40
2009,06,02,02,25,16.40
2009,06,02,02,26,16.50
2009,06,02,02,27,16.50
2009,06,02,02,28,16.60
2009,06,02,02,29,16.60
2009,06,02,02,30,16.70
2009,06,02,02,31,16.70
2009,06,02,02,32,16.70
2009,06,02,02,33,16.70
2009,06,02,02,34,16.70
2009,06,02,02,35,16.80
2009,06,02,02,36,16.80
2009,06,02,02,37,16.80
2009,06,02,02,38,16.80
2009,06,02,02,39,16.80
2009,06,02,02,40,16.80
2009,06,02,02,41,16.80
2009,06,02,02,42,16.80
2009,06,02,02,43,16.80
2009,06,02,02,44,16.70
2009,06,02,02,45,16.70
2009,06,02,02,46,16.70
2009,06,02,02,47,16.70
2009,06,02,02,48,16.70
2009,06,02,02,49,16.70
2009,06,02,02,50,16.70
2009,06,02,02,51,16.70
2009,06,02,02,52,16.70
2009,06,02,02,53,16.70
2009,06,02,02,54,16.60
2009,06,02,02,55,16.60
2009,06,02,02,56,16.60
2009,06,02,02,57,16.60
2009,06,02,02,58,16.50
2009,06,02,02,59,16.50
2009,06,02,03,00,16.40
2009,06,02,03,01,16.40
2009,06,02,03,02,16.30
2009,06,02,03,03,16.30
2009,06,02,03,04,16.30
2009,06,02,03,05,16.30
2009,06,02,03,06,16.30
2009,06,02,03,07,16.30
2009,06,02,03,08,16.30
2009,06,02,03,09,16.30
2009,06,02,03,10,16.30
2009,06,02,03,11,16.30
2009,06,02,03,12,16.30
2009,06,02,03,13,16.30
2009,06,02,03,14,16.30
2009,06,02,03,15,16.30
2009,06,02,03,16,16.30
2009,06,02,03,17,16.30
2009,06,02,03,18,16.30
2009,06,02,03,19,16.30
2009,06,02,03,20,16.30
2009,06,02,03,21,16.30
2009,06,02,03,22,16.20
2009,06,02,03,23,16.20
2009,06,02,03,24,16.20
2009,06,02,03,25,16.20
2009,06,02,03,26,16.20
2009,06,02,03,27,16.20
2009,06,02,03,28,16.20
2009,06,02,03,29,16.10
2009,06,02,03,30,16.10
2009,06,02,03,31,16.10
2009,06,02,03,32,16.10
2009,06,02,03,33,16.10
2009,06,02,03,34,16.10
2009,06,02,03,35,16.10
2009,06,02,03,36,16.10
2009,06,02,03,37,16.10
2009,06,02,03,38,16.10
2009,06,02,03,39,16.10
2009,06,02,03,40,16.10
2009,06,02,03,41,16.10
2009,06,02,03,42,16.00
2009,06,02,03,43,16.00
2009,06,02,03,44,16.00
2009,06,02,03,45,16.00
2009,06,02,03,46,15.90
2009,06,02,03,47,15.90
2009,06,02,03,48,15.90
2009,06,02,03,49,15.90
2009,06,02,03,50,15.90
2009,06,02,03,51,15.90
2009,06,02,03,52,15.80
2009,06,02,03,53,15.80
2009,06,02,03,54,15.80
2009,06,02,03,55,15.80
2009,06,02,03,56,15.80
2009,06,02,03,57,15.80
2009,06,02,03,58,15.80
2009,06,02,03,59,15.80
2009,06,02,04,00,15.80
2009,06,02,04,01,15.80
2009,06,02,04,02,15.70
2009,06,02,04,03,15.70
2009,06,02,04,04,15.70
2009,06,02,04,05,15.60
2009,06,02,04,06,15.60
2009,06,02,04,07,15.50
2009,06,02,04,08,15.50
2009,06,02,04,09,15.40
2009,06,02,04,10,15.30
2009,06,02,04,11,15.30
2009,06,02,04,12,15.20
2009,06,02,04,13,15.20
2009,06,02,04,14,15.20
2009,06,02,04,15,15.10
2009,06,02,04,16,15.10
2009,06,02,04,17,15.00
2009,06,02,04,18,15.00
2009,06,02,04,19,15.00
2009,06,02,04,20,15.00
2009,06,02,04,21,15.00
2009,06,02,04,22,15.00
2009,06,02,04,23,15.00
2009,06,02,04,24,15.00
2009,06,02,04,25,15.00
2009,06,02,04,26,15.00
2009,06,02,04,27,14.90
2009,06,02,04,28,14.80
2009,06,02,04,29,14.70
2009,06,02,04,30,14.70
2009,06,02,04,31,14.60
2009,06,02,04,32,14.60
2009,06,02,04,33,14.50
2009,06,02,04,34,14.40
2009,06,02,04,35,14.20
2009,06,02,04,36,14.10
2009,06,02,04,37,13.90
2009,06,02,04,38,13.70
2009,06,02,04,39,13.50
2009,06,02,04,40,13.30
2009,06,02,04,41,13.20
2009,06,02,04,42,13.10
2009,06,02,04,43,13.00
2009,06,02,04,44,12.90
2009,06,02,04,45,12.80
2009,06,02,04,46,12.80
2009,06,02,04,47,12.70
2009,06,02,04,48,12.70
2009,06,02,04,49,12.60
2009,06,02,04,50,12.60
2009,06,02,04,51,12.60
2009,06,02,04,52,12.60
2009,06,02,04,53,12.60
2009,06,02,04,54,12.60
2009,06,02,04,55,12.60
2009,06,02,04,56,12.60
2009,06,02,04,57,12.60
2009,06,02,04,58,12.60
2009,06,02,04,59,12.60
2009,06,02,05,00,12.60
2009,06,02,05,01,12.60
2009,06,02,05,02,12.70
2009,06,02,05,03,12.70
2009,06,02,05,04,12.70
2009,06,02,05,05,12.70
2009,06,02,05,06,12.80
2009,06,02,05,07,12.80
2009,06,02,05,08,12.90
2009,06,02,05,09,12.90
2009,06,02,05,10,13.00
2009,06,02,05,11,13.00
2009,06,02,05,12,13.10
2009,06,02,05,13,13.20
2009,06,02,05,14,13.20
2009,06,02,05,15,13.20
2009,06,02,05,16,13.30
2009,06,02,05,17,13.30
2009,06,02,05,18,13.40
2009,06,02,05,19,13.40
2009,06,02,05,20,13.40
2009,06,02,05,21,13.50
2009,06,02,05,22,13.60
2009,06,02,05,23,13.60
2009,06,02,05,24,13.60
2009,06,02,05,25,13.70
2009,06,02,05,26,13.70
2009,06,02,05,27,13.70
2009,06,02,05,28,13.70
2009,06,02,05,29,13.80
2009,06,02,05,30,13.80
2009,06,02,05,31,13.90
2009,06,02,05,32,13.90
2009,06,02,05,33,14.00
2009,06,02,05,34,14.00
2009,06,02,05,35,14.10
2009,06,02,05,36,14.10
2009,06,02,05,37,14.20
2009,06,02,05,38,14.20
2009,06,02,05,39,14.20
2009,06,02,05,40,14.30
2009,06,02,05,41,14.40
2009,06,02,05,42,14.40
2009,06,02,05,43,14.40
2009,06,02,05,44,14.50
2009,06,02,05,45,14.50
2009,06,02,05,46,14.50
2009,06,02,05,47,14.60
2009,06,02,05,48,14.60
2009,06,02,05,49,14.60
2009,06,02,05,50,14.60
2009,06,02,05,51,14.60
2009,06,02,05,52,14.70
2009,06,02,05,53,14.70
2009,06,02,05,54,14.70
2009,06,02,05,55,14.80
2009,06,02,05,56,14.80
2009,06,02,05,57,14.80
2009,06,02,05,58,14.90
2009,06,02,05,59,14.90
2009,06,02,06,00,15.00
2009,06,02,06,01,15.00
2009,06,02,06,02,15.00
2009,06,02,06,03,15.00
2009,06,02,06,04,15.00
2009,06,02,06,05,15.00
2009,06,02,06,06,15.10
2009,06,02,06,07,15.10
2009,06,02,06,08,15.20
2009,06,02,06,09,15.20
2009,06,02,06,10,15.30
2009,06,02,06,11,15.30
2009,06,02,06,12,15.40
2009,06,02,06,13,15.40
2009,06,02,06,14,15.40
2009,06,02,06,15,15.50
2009,06,02,06,16,15.60
2009,06,02,06,17,15.70
2009,06,02,06,18,15.80
2009,06,02,06,19,15.90
2009,06,02,06,20,15.90
2009,06,02,06,21,16.00
2009,06,02,06,22,16.10
2009,06,02,06,23,16.10
2009,06,02,06,24,16.20
2009,06,02,06,25,16.20
2009,06,02,06,26,16.30
2009,06,02,06,27,16.40
2009,06,02,06,28,16.40
2009,06,02,06,29,16.50
2009,06,02,06,30,16.50
2009,06,02,06,31,16.60
2009,06,02,06,32,16.60
2009,06,02,06,33,16.60
2009,06,02,06,34,16.70
2009,06,02,06,35,16.70
2009,06,02,06,36,16.70
2009,06,02,06,37,16.80
2009,06,02,06,38,16.80
2009,06,02,06,39,16.80
2009,06,02,06,40,16.90
2009,06,02,06,41,16.90
2009,06,02,06,42,17.00
2009,06,02,06,43,17.00
2009,06,02,06,44,17.10
2009,06,02,06,45,17.10
2009,06,02,06,46,17.10
2009,06,02,06,47,17.20
2009,06,02,06,48,17.20
2009,06,02,06,49,17.20
2009,06,02,06,50,17.20
2009,06,02,06,51,17.30
2009,06,02,06,52,17.30
2009,06,02,06,53,17.30
2009,06,02,06,54,17.30
2009,06,02,06,55,17.30
2009,06,02,06,56,17.30
2009,06,02,06,57,17.40
2009,06,02,06,58,17.40
2009,06,02,06,59,17.40
2009,06,02,07,00,17.40
2009,06,02,07,01,17.40
2009,06,02,07,02,17.50
2009,06,02,07,03,17.50
2009,06,02,07,04,17.50
2009,06,02,07,05,17.60
2009,06,02,07,06,17.60
2009,06,02,07,07,17.70
2009,06,02,07,08,17.70
2009,06,02,07,09,17.70
2009,06,02,07,10,17.80
2009,06,02,07,11,17.80
2009,06,02,07,12,17.80
2009,06,02,07,13,17.80
2009,06,02,07,14,17.90
2009,06,02,07,15,17.90
2009,06,02,07,16,17.90
2009,06,02,07,17,17.90
2009,06,02,07,18,18.00
2009,06,02,07,19,18.00
2009,06,02,07,20,18.10
2009,06,02,07,21,18.10
2009,06,02,07,22,18.20
2009,06,02,07,23,18.20
2009,06,02,07,24,18.30
2009,06,02,07,25,18.30
2009,06,02,07,26,18.30
2009,06,02,07,27,18.30
2009,06,02,07,28,18.40
2009,06,02,07,29,18.40
2009,06,02,07,30,18.40
2009,06,02,07,31,18.40
2009,06,02,07,32,18.40
2009,06,02,07,33,18.40
2009,06,02,07,34,18.40
2009,06,02,07,35,18.40
2009,06,02,07,36,18.40
2009,06,02,07,37,18.40
2009,06,02,07,38,18.40
2009,06,02,07,39,18.30
2009,06,02,07,40,18.30
2009,06,02,07,41,18.30
2009,06,02,07,42,18.30
2009,06,02,07,43,18.30
2009,06,02,07,44,18.30
2009,06,02,07,45,18.30
2009,06,02,07,46,18.30
2009,06,02,07,47,18.30
2009,06,02,07,48,18.30
2009,06,02,07,49,18.30
2009,06,02,07,50,18.30
2009,06,02,07,51,18.30
2009,06,02,07,52,18.30
2009,06,02,07,53,18.30
2009,06,02,07,54,18.30
2009,06,02,07,55,18.30
2009,06,02,07,56,18.30
2009,06,02,07,57,18.30
2009,06,02,07,58,18.40
2009,06,02,07,59,18.40
2009,06,02,08,00,18.40
2009,06,02,08,01,18.40
2009,06,02,08,02,18.50
2009,06,02,08,03,18.50
2009,06,02,08,04,18.60
2009,06,02,08,05,18.60
2009,06,02,08,06,18.70
2009,06,02,08,07,18.70
2009,06,02,08,08,18.70
2009,06,02,08,09,18.80
2009,06,02,08,10,18.80
2009,06,02,08,11,18.90
2009,06,02,08,12,18.90
2009,06,02,08,13,18.90
2009,06,02,08,14,19.00
2009,06,02,08,15,19.00
2009,06,02,08,16,19.10
2009,06,02,08,17,19.10
2009,06,02,08,18,19.20
2009,06,02,08,19,19.20
2009,06,02,08,20,19.20
2009,06,02,08,21,19.30
2009,06,02,08,22,19.30
2009,06,02,08,23,19.30
2009,06,02,08,24,19.40
2009,06,02,08,25,19.40
2009,06,02,08,26,19.50
2009,06,02,08,27,19.60
2009,06,02,08,28,19.60
2009,06,02,08,29,19.60
2009,06,02,08,30,19.70
2009,06,02,08,31,19.70
2009,06,02,08,32,19.70
2009,06,02,08,33,19.80
2009,06,02,08,34,19.80
2009,06,02,08,35,19.80
2009,06,02,08,36,19.80
2009,06,02,08,37,19.90
2009,06,02,08,38,19.90
2009,06,02,08,39,19.90
2009,06,02,08,40,19.90
2009,06,02,08,41,20.00
2009,06,02,08,42,20.00
2009,06,02,08,43,20.00
2009,06,02,08,44,20.00
2009,06,02,08,45,19.90
2009,06,02,08,46,20.00
2009,06,02,08,47,20.00
2009,06,02,08,48,20.00
2009,06,02,08,49,20.00
2009,06,02,08,50,20.10
2009,06,02,08,51,20.10
2009,06,02,08,52,20.10
2009,06,02,08,53,20.20
2009,06,02,08,54,20.20
2009,06,02,08,55,20.20
2009,06,02,08,56,20.30
2009,06,02,08,57,20.30
2009,06,02,08,58,20.30
2009,06,02,08,59,20.30
2009,06,02,09,00,20.30
2009,06,02,09,01,20.40
2009,06,02,09,02,20.40
2009,06,02,09,03,20.50
2009,06,02,09,04,20.50
2009,06,02,09,05,20.60
2009,06,02,09,06,20.60
2009,06,02,09,07,20.60
2009,06,02,09,08,20.60
2009,06,02,09,09,20.60
2009,06,02,09,10,20.60
2009,06,02,09,11,20.70
2009,06,02,09,12,20.70
2009,06,02,09,13,20.80
2009,06,02,09,14,20.90
2009,06,02,09,15,21.00
2009,06,02,09,16,21.10
2009,06,02,09,17,21.10
2009,06,02,09,18,21.20
2009,06,02,09,19,21.30
2009,06,02,09,20,21.30
2009,06,02,09,21,21.40
2009,06,02,09,22,21.40
2009,06,02,09,23,21.40
2009,06,02,09,24,21.40
2009,06,02,09,25,21.40
2009,06,02,09,26,21.40
2009,06,02,09,27,21.50
2009,06,02,09,28,21.50
2009,06,02,09,29,21.50
2009,06,02,09,30,21.60
2009,06,02,09,31,21.60
2009,06,02,09,32,21.70
2009,06,02,09,33,21.70
2009,06,02,09,34,21.80
2009,06,02,09,35,21.80
2009,06,02,09,36,21.80
2009,06,02,09,37,21.80
2009,06,02,09,38,21.80
2009,06,02,09,39,21.80
2009,06,02,09,40,21.90
2009,06,02,09,41,21.90
2009,06,02,09,42,22.00
2009,06,02,09,43,22.00
2009,06,02,09,44,22.10
2009,06,02,09,45,22.20
2009,06,02,09,46,22.20
2009,06,02,09,47,22.30
2009,06,02,09,48,22.40
2009,06,02,09,49,22.40
2009,06,02,09,50,22.40
2009,06,02,09,51,22.40
2009,06,02,09,52,22.50
2009,06,02,09,53,22.50
2009,06,02,09,54,22.50
2009,06,02,09,55,22.60
2009,06,02,09,56,22.60
2009,06,02,09,57,22.70
2009,06,02,09,58,22.80
2009,06,02,09,59,22.80
2009,06,02,10,00,22.80
2009,06,02,10,01,22.80
2009,06,02,10,02,22.80
2009,06,02,10,03,22.80
2009,06,02,10,04,22.70
2009,06,02,10,05,22.70
2009,06,02,10,06,22.80
2009,06,02,10,07,22.80
2009,06,02,10,08,22.80
2009,06,02,10,09,22.80
2009,06,02,10,10,22.80
2009,06,02,10,11,22.90
2009,06,02,10,12,22.90
2009,06,02,10,13,22.90
2009,06,02,10,14,22.90
2009,06,02,10,15,22.90
2009,06,02,10,16,22.90
2009,06,02,10,17,23.00
2009,06,02,10,18,23.00
2009,06,02,10,19,23.10
2009,06,02,10,20,23.20
2009,06,02,10,21,23.30
2009,06,02,10,22,23.20
2009,06,02,10,23,23.20
2009,06,02,10,24,23.20
2009,06,02,10,25,23.30
2009,06,02,10,26,23.30
2009,06,02,10,27,23.30
2009,06,02,10,28,23.20
2009,06,02,10,29,23.20
2009,06,02,10,30,23.20
2009,06,02,10,31,23.10
2009,06,02,10,32,23.10
2009,06,02,10,33,23.10
2009,06,02,10,34,23.10
2009,06,02,10,35,23.20
2009,06,02,10,36,23.20
2009,06,02,10,37,23.20
2009,06,02,10,38,23.20
2009,06,02,10,39,23.20
2009,06,02,10,40,23.20
2009,06,02,10,41,23.20
2009,06,02,10,42,23.20
2009,06,02,10,43,23.20
2009,06,02,10,44,23.20
2009,06,02,10,45,23.20
2009,06,02,10,46,23.30
2009,06,02,10,47,23.20
2009,06,02,10,48,23.10
2009,06,02,10,49,23.10
2009,06,02,10,50,23.00
2009,06,02,10,51,23.00
2009,06,02,10,52,23.00
2009,06,02,10,53,23.00
2009,06,02,10,54,23.00
2009,06,02,10,55,23.00
2009,06,02,10,56,23.10
2009,06,02,10,57,23.20
2009,06,02,10,58,23.30
2009,06,02,10,59,23.40
2009,06,02,11,00,23.50
2009,06,02,11,01,23.60
2009,06,02,11,02,23.60
2009,06,02,11,03,23.60
2009,06,02,11,04,23.60
2009,06,02,11,05,23.60
2009,06,02,11,06,23.50
2009,06,02,11,07,23.50
2009,06,02,11,08,23.40
2009,06,02,11,09,23.40
2009,06,02,11,10,23.40
2009,06,02,11,11,23.30
2009,06,02,11,12,23.40
2009,06,02,11,13,23.40
2009,06,02,11,14,23.50
2009,06,02,11,15,23.70
2009,06,02,11,16,23.90
2009,06,02,11,17,24.00
2009,06,02,11,18,24.20
2009,06,02,11,19,24.30
2009,06,02,11,20,24.30
2009,06,02,11,21,24.30
2009,06,02,11,22,24.30
2009,06,02,11,23,24.20
2009,06,02,11,24,24.20
2009,06,02,11,25,24.10
2009,06,02,11,26,24.10
2009,06,02,11,27,24.10
2009,06,02,11,28,24.10
2009,06,02,11,29,24.10
2009,06,02,11,30,24.10
2009,06,02,11,31,24.10
2009,06,02,11,32,24.00
2009,06,02,11,33,24.10
2009,06,02,11,34,24.20
2009,06,02,11,35,24.10
2009,06,02,11,36,24.10
2009,06,02,11,37,24.00
2009,06,02,11,38,23.90
2009,06,02,11,39,23.90
2009,06,02,11,40,23.90
2009,06,02,11,41,24.00
2009,06,02,11,42,24.10
2009,06,02,11,43,24.20
2009,06,02,11,44,24.20
2009,06,02,11,45,24.20
2009,06,02,11,46,24.30
2009,06,02,11,47,24.30
2009,06,02,11,48,24.30
2009,06,02,11,49,24.20
2009,06,02,11,50,24.30
2009,06,02,11,51,24.30
2009,06,02,11,52,24.30
2009,06,02,11,53,24.40
2009,06,02,11,54,24.50
2009,06,02,11,55,24.60
2009,06,02,11,56,24.70
2009,06,02,11,57,24.80
2009,06,02,11,58,24.80
2009,06,02,11,59,24.90
2009,06,02,12,00,24.90
2009,06,02,12,01,24.80
2009,06,02,12,02,24.80
2009,06,02,12,03,24.70
2009,06,02,12,04,24.60
2009,06,02,12,05,24.60
2009,06,02,12,06,24.70
2009,06,02,12,07,24.70
2009,06,02,12,08,24.70
2009,06,02,12,09,24.70
2009,06,02,12,10,24.70
2009,06,02,12,11,24.70
2009,06,02,12,12,24.70
2009,06,02,12,13,24.60
2009,06,02,12,14,24.70
2009,06,02,12,15,24.70
2009,06,02,12,16,24.80
2009,06,02,12,17,24.80
2009,06,02,12,18,24.90
2009,06,02,12,19,25.00
2009,06,02,12,20,25.10
2009,06,02,12,21,25.10
2009,06,02,12,22,25.20
2009,06,02,12,23,25.20
2009,06,02,12,24,25.20
2009,06,02,12,25,25.20
2009,06,02,12,26,25.20
2009,06,02,12,27,25.20
2009,06,02,12,28,25.20
2009,06,02,12,29,25.10
2009,06,02,12,30,25.00
2009,06,02,12,31,24.90
2009,06,02,12,32,24.90
2009,06,02,12,33,25.00
2009,06,02,12,34,25.10
2009,06,02,12,35,25.10
2009,06,02,12,36,25.10
2009,06,02,12,37,25.20
2009,06,02,12,38,25.10
2009,06,02,12,39,25.10
2009,06,02,12,40,25.10
2009,06,02,12,41,25.20
2009,06,02,12,42,25.20
2009,06,02,12,43,25.20
2009,06,02,12,44,25.20
2009,06,02,12,45,25.20
2009,06,02,12,46,25.20
2009,06,02,12,47,25.20
2009,06,02,12,48,25.20
2009,06,02,12,49,25.10
2009,06,02,12,50,25.20
2009,06,02,12,51,25.20
2009,06,02,12,52,25.20
2009,06,02,12,53,25.30
2009,06,02,12,54,25.40
2009,06,02,12,55,25.40
2009,06,02,12,56,25.50
2009,06,02,12,57,25.50
2009,06,02,12,58,25.60
2009,06,02,12,59,25.70
2009,06,02,13,00,25.70
2009,06,02,13,01,25.70
2009,06,02,13,02,25.70
2009,06,02,13,03,25.70
2009,06,02,13,04,25.70
2009,06,02,13,05,25.70
2009,06,02,13,06,25.70
2009,06,02,13,07,25.70
2009,06,02,13,08,25.80
2009,06,02,13,09,25.80
2009,06,02,13,10,25.90
2009,06,02,13,11,25.90
2009,06,02,13,12,25.90
2009,06,02,13,13,25.90
2009,06,02,13,14,25.90
2009,06,02,13,15,25.90
2009,06,02,13,16,25.90
2009,06,02,13,17,25.90
2009,06,02,13,18,25.90
2009,06,02,13,19,25.90
2009,06,02,13,20,26.10
2009,06,02,13,21,26.10
2009,06,02,13,22,26.20
2009,06,02,13,23,26.20
2009,06,02,13,24,26.20
2009,06,02,13,25,26.20
2009,06,02,13,26,26.20
2009,06,02,13,27,26.20
2009,06,02,13,28,26.20
2009,06,02,13,29,26.20
2009,06,02,13,30,26.20
2009,06,02,13,31,26.20
2009,06,02,13,32,26.20
2009,06,02,13,33,26.20
2009,06,02,13,34,26.30
2009,06,02,13,35,26.30
2009,06,02,13,36,26.50
2009,06,02,13,37,26.50
2009,06,02,13,38,26.40
2009,06,02,13,39,26.40
2009,06,02,13,40,26.40
2009,06,02,13,41,26.30
2009,06,02,13,42,26.30
2009,06,02,13,43,26.40
2009,06,02,13,44,26.50
2009,06,02,13,45,26.50
2009,06,02,13,46,26.50
2009,06,02,13,47,26.50
2009,06,02,13,48,26.60
2009,06,02,13,49,26.60
2009,06,02,13,50,26.70
2009,06,02,13,51,26.70
2009,06,02,13,52,26.70
2009,06,02,13,53,26.70
2009,06,02,13,54,26.70
2009,06,02,13,55,26.80
2009,06,02,13,56,26.80
2009,06,02,13,57,26.80
2009,06,02,13,58,26.80
2009,06,02,13,59,26.90
2009,06,02,14,00,26.90
2009,06,02,14,01,26.90
2009,06,02,14,02,26.90
2009,06,02,14,03,27.00
2009,06,02,14,04,27.10
2009,06,02,14,05,27.10
2009,06,02,14,06,27.00
2009,06,02,14,07,27.00
2009,06,02,14,08,27.00
2009,06,02,14,09,27.00
2009,06,02,14,10,27.00
2009,06,02,14,11,27.10
2009,06,02,14,12,27.10
2009,06,02,14,13,27.10
2009,06,02,14,14,27.10
2009,06,02,14,15,27.10
2009,06,02,14,16,27.20
2009,06,02,14,17,27.20
2009,06,02,14,18,27.30
2009,06,02,14,19,27.40
2009,06,02,14,20,27.40
2009,06,02,14,21,27.50
2009,06,02,14,22,27.60
2009,06,02,14,23,27.60
2009,06,02,14,24,27.60
2009,06,02,14,25,27.60
2009,06,02,14,26,27.70
2009,06,02,14,27,27.70
2009,06,02,14,28,27.70
2009,06,02,14,29,27.60
2009,06,02,14,30,27.60
2009,06,02,14,31,27.70
2009,06,02,14,32,27.70
2009,06,02,14,33,27.80
2009,06,02,14,34,27.90
2009,06,02,14,35,27.80
2009,06,02,14,36,27.80
2009,06,02,14,37,27.90
2009,06,02,14,38,27.80
2009,06,02,14,39,27.80
2009,06,02,14,40,27.90
2009,06,02,14,41,27.80
2009,06,02,14,42,27.80
2009,06,02,14,43,27.80
2009,06,02,14,44,27.80
2009,06,02,14,45,27.90
2009,06,02,14,46,27.80
2009,06,02,14,47,27.70
2009,06,02,14,48,27.70
2009,06,02,14,49,27.50
2009,06,02,14,50,27.40
2009,06,02,14,51,27.30
2009,06,02,14,52,27.30
2009,06,02,14,53,27.30
2009,06,02,14,54,27.30
2009,06,02,14,55,27.30
2009,06,02,14,56,27.30
2009,06,02,14,57,27.30
2009,06,02,14,58,27.20
2009,06,02,14,59,27.20
2009,06,02,15,00,27.20
2009,06,02,15,01,27.20
2009,06,02,15,02,27.20
2009,06,02,15,03,27.20
2009,06,02,15,04,27.30
2009,06,02,15,05,27.30
2009,06,02,15,06,27.30
2009,06,02,15,07,27.30
2009,06,02,15,08,27.30
2009,06,02,15,09,27.40
2009,06,02,15,10,27.50
2009,06,02,15,11,27.60
2009,06,02,15,12,27.70
2009,06,02,15,13,27.80
2009,06,02,15,14,27.80
2009,06,02,15,15,27.80
2009,06,02,15,16,27.80
2009,06,02,15,17,27.70
2009,06,02,15,18,27.60
2009,06,02,15,19,27.50
2009,06,02,15,20,27.40
2009,06,02,15,21,27.30
2009,06,02,15,22,27.30
2009,06,02,15,23,27.20
2009,06,02,15,24,27.20
2009,06,02,15,25,27.20
2009,06,02,15,26,27.30
2009,06,02,15,27,27.30
2009,06,02,15,28,27.30
2009,06,02,15,29,27.30
2009,06,02,15,30,27.30
2009,06,02,15,31,27.30
2009,06,02,15,32,27.30
2009,06,02,15,33,27.30
2009,06,02,15,34,27.40
2009,06,02,15,35,27.50
2009,06,02,15,36,27.70
2009,06,02,15,37,27.90
2009,06,02,15,38,28.00
2009,06,02,15,39,28.00
2009,06,02,15,40,27.90
2009,06,02,15,41,27.80
2009,06,02,15,42,27.90
2009,06,02,15,43,28.00
2009,06,02,15,44,27.90
2009,06,02,15,45,27.80
2009,06,02,15,46,27.60
2009,06,02,15,47,27.60
2009,06,02,15,48,27.70
2009,06,02,15,49,27.70
2009,06,02,15,50,27.80
2009,06,02,15,51,27.70
2009,06,02,15,52,27.70
2009,06,02,15,53,27.70
2009,06,02,15,54,27.60
2009,06,02,15,55,27.50
2009,06,02,15,56,27.50
2009,06,02,15,57,27.40
2009,06,02,15,58,27.30
2009,06,02,15,59,27.30
2009,06,02,16,00,27.30
2009,06,02,16,01,27.30
2009,06,02,16,02,27.10
2009,06,02,16,03,27.00
2009,06,02,16,04,26.90
2009,06,02,16,05,26.80
2009,06,02,16,06,26.80
2009,06,02,16,07,26.80
2009,06,02,16,08,26.80
2009,06,02,16,09,26.80
2009,06,02,16,10,26.80
2009,06,02,16,11,26.80
2009,06,02,16,12,26.80
2009,06,02,16,13,26.80
2009,06,02,16,14,26.90
2009,06,02,16,15,26.90
2009,06,02,16,16,26.90
2009,06,02,16,17,26.90
2009,06,02,16,18,26.90
2009,06,02,16,19,26.90
2009,06,02,16,20,26.80
2009,06,02,16,21,26.70
2009,06,02,16,22,26.60
2009,06,02,16,23,26.60
2009,06,02,16,24,26.70
2009,06,02,16,25,26.70
2009,06,02,16,26,26.70
2009,06,02,16,27,26.80
2009,06,02,16,28,26.80
2009,06,02,16,29,26.90
2009,06,02,16,30,26.80
2009,06,02,16,31,26.80
2009,06,02,16,32,26.80
2009,06,02,16,33,26.80
2009,06,02,16,34,26.80
2009,06,02,16,35,26.80
2009,06,02,16,36,26.90
2009,06,02,16,37,27.00
2009,06,02,16,38,27.20
2009,06,02,16,39,27.20
2009,06,02,16,40,27.40
2009,06,02,16,41,27.50
2009,06,02,16,42,27.60
2009,06,02,16,43,27.70
2009,06,02,16,44,27.80
2009,06,02,16,45,27.90
2009,06,02,16,46,28.00
2009,06,02,16,47,28.10
2009,06,02,16,48,28.20
2009,06,02,16,49,28.30
2009,06,02,16,50,28.50
2009,06,02,16,51,28.60
2009,06,02,16,52,28.70
2009,06,02,16,53,28.70
2009,06,02,16,54,28.70
2009,06,02,16,55,28.70
2009,06,02,16,56,28.70
2009,06,02,16,57,28.70
2009,06,02,16,58,28.70
2009,06,02,16,59,28.60
2009,06,02,17,00,28.60
2009,06,02,17,01,28.60
2009,06,02,17,02,28.70
2009,06,02,17,03,28.70
2009,06,02,17,04,28.70
2009,06,02,17,05,28.70
2009,06,02,17,06,28.70
2009,06,02,17,07,28.70
2009,06,02,17,08,28.80
2009,06,02,17,09,28.90
2009,06,02,17,10,28.90
2009,06,02,17,11,28.90
2009,06,02,17,12,28.90
2009,06,02,17,13,29.00
2009,06,02,17,14,29.00
2009,06,02,17,15,29.10
2009,06,02,17,16,29.10
2009,06,02,17,17,29.20
2009,06,02,17,18,29.20
2009,06,02,17,19,29.30